Theta_e
349 341 342 342 341 341 341 343 343 343 343 341 336 340 333 333 333 338 338 338 340 338 334 333 335 335 335 334 336 337 338 338 338 338 333 335 337 341 342 341 339 335 325
348 340 341 341 340 340 342 343 342 343 343 342 341 341 336 334 339 339 337 337 338 341 338 336 335 338 339 339 339 336 331 339 329 328 334 338 335 343 345 344 339 338 329
350 339 340 339 341 340 340 337 337 338 341 343 342 342 336 339 338 334 336 339 338 340 340 340 338 339 336 340 341 335 327 327 339 342 343 333 331 340 344 344 328 339 331
351 339 337 339 338 333 332 333 333 334 337 340 341 339 337 334 332 333 339 341 339 340 342 340 340 339 334 341 341 327 327 340 342 343 346 343 328 327 334 332 323 326 326
350 348 334 337 334 330 331 333 332 332 334 334 334 333 334 336 341 342 340 340 339 336 341 341 339 339 336 337 333 330 332 340 341 343 346 344 336 331 333 331 337 337 338
349 349 332 333 332 330 331 335 334 331 331 332 331 331 334 335 340 340 341 340 336 330 339 335 341 333 325 337 331 326 342 345 346 343 342 342 341 340 342 342 331 341 332
348 347 331 332 331 330 330 332 334 332 333 334 338 338 340 341 341 340 341 338 339 325 337 335 326 333 339 338 329 331 341 345 343 343 341 344 345 333 329 340 336 331 325
350 349 334 331 331 330 330 331 333 333 330 333 339 340 334 336 339 339 339 339 340 325 331 336 333 343 340 328 326 332 342 343 345 344 343 345 328 322 338 326 328 335 331
353 350 339 333 331 331 330 331 333 334 332 329 332 337 333 333 336 340 340 337 339 326 342 340 332 328 324 327 328 325 341 344 343 342 344 345 328 321 336 329 328 328 331
354 351 336 338 335 333 332 332 333 337 335 332 339 332 341 334 333 338 338 337 340 327 335 341 328 327 329 332 331 331 342 343 345 344 345 341 338 330 327 331 330 328 330
353 352 348 346 347 344 340 334 335 342 342 336 340 335 339 335 334 333 336 336 337 335 326 336 336 338 331 338 337 330 340 344 348 347 344 337 324 323 326 326 325 329 326
348 353 352 350 347 347 350 342 337 345 342 339 343 342 342 348 346 345 343 343 335 338 326 342 338 338 335 337 333 332 344 344 347 346 343 344 337 335 330 324 324 325 324
347 349 350 353 349 349 350 349 342 346 345 344 345 344 346 349 348 349 349 344 338 337 330 329 341 336 336 344 342 341 339 342 345 346 344 345 337 337 340 338 328 325 324
349 348 349 352 352 347 352 350 348 348 349 349 347 346 350 349 348 349 348 346 345 343 343 341 327 328 334 344 345 345 344 343 345 345 344 345 342 340 342 341 339 332 327
349 348 348 349 352 352 352 351 349 349 348 346 350 346 350 350 348 348 349 347 346 346 346 346 343 342 340 341 343 345 343 342 346 347 346 346 345 342 341 342 341 341 336
350 349 349 349 350 350 352 350 349 350 348 349 349 344 347 347 350 344 346 348 348 348 344 346 345 345 343 343 342 343 343 345 345 346 345 346 348 346 342 342 342 342 341
350 349 350 349 349 350 351 350 350 352 351 351 348 347 346 344 349 347 349 347 345 343 346 343 345 347 346 346 345 344 341 343 345 346 346 345 346 345 346 346 342 341 342
350 349 350 350 350 349 350 348 349 350 347 351 347 351 350 347 348 349 346 348 346 346 346 345 342 343 345 343 344 344 344 343 341 344 343 344 348 347 347 346 347 346 342
350 350 350 352 352 348 345 347 347 345 345 350 350 348 351 347 343 349 345 346 347 345 345 344 341 341 347 346 345 345 345 346 346 345 347 343 347 348 348 348 347 348 348
349 350 351 353 353 352 347 348 347 350 346 347 347 349 346 348 347 343 344 346 346 347 346 345 347 342 341 346 347 348 344 343 345 347 346 345 344 342 343 347 346 348 348
349 351 351 353 354 353 350 348 351 349 349 347 349 348 348 347 348 346 343 346 341 340 346 346 344 345 342 343 348 347 346 348 346 343 344 345 344 346 348 347 345 346 348
349 351 350 351 352 353 350 347 350 351 350 348 348 350 349 349 349 350 342 341 347 347 345 347 347 347 349 345 345 345 345 345 349 348 341 345 344 346 347 345 347 347 347
349 349 350 351 350 351 350 350 350 353 350 349 348 349 350 350 352 349 347 343 344 346 345 345 347 347 346 348 345 344 344 345 346 346 347 345 343 346 345 346 345 347 348
351 350 349 351 351 352 349 351 352 354 351 351 349 350 350 351 351 350 349 348 346 347 348 346 345 345 344 342 346 348 346 348 347 346 348 346 346 349 348 349 346 347 348
352 352 352 350 352 354 347 352 351 352 353 351 352 351 353 354 353 350 350 351 347 346 347 346 347 347 347 346 343 344 345 346 344 346 346 348 346 347 347 348 346 347 350
353 355 356 353 354 358 347 352 351 352 354 354 353 356 354 353 353 352 349 345 345 348 346 348 347 346 345 344 343 343 342 343 341 342 347 346 347 345 345 347 347 348 348
Wind_Speed
23 27 24 22 19 17 17 15 15 13 12 12 12 12 12 13 14 14 15 14 12 13 15 16 15 13 13 11 10 10 10 9 6 5 7 12 15 18 20 21 11 15 15
25 28 24 22 19 17 16 16 13 13 13 12 11 11 11 13 13 12 12 11 10 11 12 12 12 11 9 7 8 9 9 9 9 10 11 14 14 14 14 19 10 13 14
25 27 25 21 18 17 15 14 14 13 13 13 12 10 11 11 11 11 10 10 9 10 12 11 11 10 7 8 9 9 12 16 17 18 17 11 11 12 13 15 6 12 13
25 25 24 21 19 16 15 13 13 13 13 13 11 10 11 10 10 10 10 10 10 11 9 11 11 9 9 10 10 11 19 21 19 17 14 6 7 11 11 10 10 10 11
22 22 22 22 19 17 15 13 12 12 12 12 11 10 10 10 10 10 9 10 9 10 9 10 10 9 9 9 9 13 21 20 18 18 11 7 4 11 12 11 12 13 11
21 21 20 21 19 16 15 13 12 12 12 12 12 11 11 10 10 9 9 8 8 9 8 9 9 8 11 10 12 17 20 18 16 15 6 7 4 8 10 11 10 9 8
26 20 15 17 18 17 15 13 12 10 11 11 11 11 11 10 9 9 8 8 8 8 10 8 10 11 13 11 12 18 18 16 15 11 11 4 6 3 9 9 7 7 7
28 21 13 17 17 16 15 12 11 10 10 12 12 10 11 10 9 9 8 8 8 8 11 11 10 10 10 10 13 19 18 17 13 11 6 4 1 8 9 8 7 7 7
21 17 19 20 19 17 16 14 12 11 10 11 11 11 10 9 10 10 9 9 9 9 9 10 10 10 12 13 13 16 17 16 15 13 8 4 2 6 8 8 7 7 7
25 16 17 20 20 19 18 16 13 11 11 11 11 11 10 9 11 10 9 9 8 8 11 8 11 11 14 12 11 14 15 15 14 11 11 4 2 3 6 7 6 6 6
17 16 14 16 18 17 16 16 15 13 11 11 12 12 11 10 9 9 8 8 8 8 11 10 11 12 13 8 10 13 16 12 7 4 13 3 2 3 5 6 6 5 4
21 20 20 15 17 17 13 15 16 15 14 12 11 11 11 13 10 5 8 9 8 9 12 13 12 12 12 9 8 15 8 11 1 10 12 4 4 2 3 4 4 5 4
24 20 22 20 16 16 19 15 14 12 11 8 11 11 14 12 14 10 11 7 10 11 11 16 15 15 13 11 5 2 3 2 2 5 7 5 5 6 4 3 3 4 4
27 24 21 24 21 14 21 16 11 13 13 13 13 12 13 10 11 10 9 6 5 9 9 6 12 14 12 17 11 10 7 6 5 12 8 8 6 8 7 5 4 4 4
30 28 25 26 25 18 24 18 16 16 15 18 19 16 14 8 8 13 12 12 10 7 16 17 12 5 10 12 10 10 14 10 7 5 9 5 6 7 5 6 5 6 6
30 31 29 29 25 21 26 22 18 22 20 19 22 19 24 20 16 11 11 8 10 14 15 19 20 19 13 12 15 15 16 15 9 10 9 6 5 6 6 5 6 6 5
32 33 33 33 32 29 29 25 25 21 18 21 17 16 19 21 15 17 17 16 13 13 17 20 21 21 21 16 15 10 17 21 16 11 13 12 12 9 8 8 8 8 7
33 34 34 35 34 32 33 31 28 26 26 16 21 9 18 17 21 21 18 13 10 15 15 16 19 24 19 17 16 16 14 11 18 17 17 14 14 15 14 12 10 9 9
35 36 36 33 32 30 32 31 29 26 24 20 15 21 15 18 25 19 17 14 12 16 14 13 14 18 18 18 15 17 18 16 14 13 17 19 17 13 14 13 12 10 10
36 38 39 37 35 31 30 30 26 26 26 22 20 20 21 22 19 20 21 18 15 18 19 15 15 16 20 16 17 19 20 17 19 18 19 21 15 17 16 17 16 14 12
39 41 41 41 38 35 34 34 29 29 27 26 24 21 24 23 21 20 22 22 19 18 16 20 17 18 17 20 16 18 15 17 20 23 25 22 23 21 19 22 22 22 17
44 44 44 44 41 39 36 32 31 27 27 26 24 24 24 24 23 18 23 23 19 19 21 19 21 19 16 14 21 17 17 21 25 22 24 25 22 21 24 25 23 19 15
46 47 45 46 44 42 37 32 28 26 24 24 25 24 26 25 23 19 20 23 22 22 22 27 24 24 24 17 20 20 11 14 20 25 26 24 21 22 23 18 13 17 16
48 48 46 44 46 44 39 36 34 33 32 30 27 27 26 26 25 25 20 21 22 25 24 23 25 27 25 27 20 23 22 15 7 7 22 27 22 21 18 16 12 15 18
46 49 48 45 46 45 43 39 36 35 28 28 25 22 27 23 22 24 25 21 21 23 23 22 22 22 22 22 22 25 22 24 27 24 16 14 21 22 20 21 19 19 16
41 42 46 45 46 45 44 41 38 36 30 27 27 24 22 23 24 23 21 20 27 19 20 22 19 21 20 21 21 21 25 27 26 28 22 17 21 20 23 21 21 17 14
Wind_Direction
155 156 152 146 145 145 142 142 148 148 144 138 135 118 118 121 121 117 117 121 124 130 136 141 144 141 140 141 142 143 162 165 147 145 117 109 110 108 101 90 78 98 100
153 155 154 151 149 148 144 144 147 151 149 148 139 133 123 130 125 121 120 116 122 132 139 144 147 137 131 142 147 128 133 135 110 98 107 109 113 109 110 116 132 104 101
145 155 156 155 153 154 154 149 151 151 150 154 149 142 132 135 131 129 124 117 117 129 138 142 143 142 123 127 144 126 115 103 100 102 86 61 113 114 113 126 97 108 105
145 151 157 156 157 154 154 152 146 149 153 156 152 143 139 138 136 134 124 120 122 122 132 143 144 135 127 126 130 122 115 109 103 105 121 63 106 126 127 119 121 114 105
147 148 157 157 158 155 152 150 148 149 153 154 152 154 150 146 138 136 134 128 122 131 126 137 146 146 146 147 135 124 122 109 98 83 100 156 119 118 123 119 113 114 108
143 161 156 158 161 160 156 154 153 153 156 159 157 155 151 153 151 149 145 140 132 137 138 152 158 151 144 142 136 128 124 117 100 100 168 165 176 126 122 117 120 126 130
152 166 161 164 166 165 164 159 155 155 155 150 154 155 151 152 157 157 155 146 137 141 149 131 142 139 148 149 133 140 130 112 106 120 145 170 220 167 134 139 130 134 126
164 171 162 169 171 170 169 168 162 159 161 160 161 157 159 159 158 158 162 153 146 138 143 150 148 152 153 150 138 139 136 127 110 130 168 221 260 180 151 146 147 141 135
151 172 171 171 172 174 174 173 169 165 166 163 162 166 162 161 165 159 165 159 153 151 153 157 159 161 156 149 142 145 140 128 128 145 205 232 206 177 159 144 146 145 145
154 164 184 174 172 176 177 177 176 169 170 168 164 168 164 172 168 167 167 171 165 161 167 169 164 162 156 153 148 141 148 142 138 129 194 239 294 188 176 164 162 158 151
161 155 164 183 176 177 181 180 176 176 180 181 175 180 179 171 167 165 176 167 181 170 176 171 173 178 177 168 155 157 157 154 158 222 212 202 289 209 194 185 177 176 171
176 166 173 190 189 174 181 190 185 185 188 186 185 184 172 169 170 156 188 193 199 190 184 182 183 179 178 159 141 168 157 135 351 210 198 256 305 236 190 195 186 183 190
180 180 178 193 193 189 178 208 199 189 190 191 200 200 197 199 182 185 200 211 221 202 194 191 190 189 180 168 189 192 248 153 147 208 241 270 291 267 247 229 210 210 209
180 184 182 193 193 188 179 207 183 184 202 211 211 199 200 213 164 187 225 226 223 208 180 210 202 196 183 184 204 235 204 195 178 236 248 274 293 291 258 231 228 237 231
182 182 185 190 201 201 178 201 192 193 202 206 210 202 182 200 205 202 232 214 248 232 201 201 206 192 189 213 212 208 216 223 241 240 230 260 283 296 282 244 256 246 238
188 184 186 193 202 198 180 193 201 200 217 202 219 205 179 184 205 193 229 209 239 244 211 199 192 205 211 213 224 226 199 221 224 265 244 256 268 281 284 293 271 257 248
192 190 189 197 203 201 195 193 199 200 203 214 210 223 195 182 206 206 215 224 234 245 241 212 205 194 199 203 236 246 220 217 215 225 238 268 269 276 267 274 270 264 261
194 193 193 198 205 202 201 200 203 198 202 214 219 213 206 206 211 211 215 231 227 236 230 226 204 206 200 214 205 233 247 253 230 221 223 233 267 268 262 265 276 265 256
195 195 195 196 202 200 200 201 202 201 200 200 225 222 243 246 223 218 223 224 230 219 223 222 227 214 206 206 219 220 230 245 253 239 242 234 234 255 266 249 274 268 282
195 201 200 200 200 205 201 200 205 200 206 203 208 231 226 241 243 232 225 224 233 226 223 230 237 232 220 216 220 242 240 239 237 234 241 254 245 237 245 255 258 265 277
193 201 205 203 201 204 201 199 199 199 208 205 203 216 229 238 245 236 229 227 233 210 214 231 233 229 216 221 225 235 244 233 232 249 239 243 248 239 246 251 260 264 267
191 201 208 209 205 206 204 203 196 205 208 211 202 214 223 234 248 245 234 224 229 221 219 224 223 229 237 225 223 241 254 243 242 251 238 239 241 234 240 249 254 263 258
193 202 209 212 209 209 205 203 196 203 207 215 209 215 223 230 241 244 235 226 229 232 227 221 225 225 229 226 226 234 234 242 248 251 246 237 242 237 238 250 237 244 252
196 202 210 214 212 210 205 201 196 197 202 210 213 216 223 232 244 247 243 236 223 229 229 227 226 235 238 232 228 231 234 240 272 268 239 233 234 249 236 227 243 244 241
189 200 207 215 212 211 208 203 203 201 205 202 217 212 220 229 237 238 241 247 247 235 233 232 236 238 237 241 232 238 242 242 247 254 266 228 217 232 220 242 249 247 252
189 194 200 214 216 211 211 203 208 208 200 205 207 215 216 230 242 246 243 252 250 243 238 237 240 241 244 248 247 243 245 246 248 244 242 244 232 225 230 236 239 238 235